SCP
0 0 0 0 0 0 0 0 0 0 0 0 0 0 0 0 0 0 0 0 0 0 0 0 0 0 0 0 0 0 0 0 0 0 0 0 0 0 0 0 0 0 0 0
0 0 0 0 0 0 0 0 0 0 0 0 0 0 0 0 0 0 0 0 0 0 0 0 0 0 0 0 0 0 0 0 0 0 0 0 0 0 0 0 0 0 0 0
0 0 0 0 0 0 0 0 0 0 0 0 0 0 0 0 0 0 0 0 0 0 0 0 0 0 0 0 0 0 0 0 0 0 0 0 0 0 0 0 0 0 0 0
0 0 0 0 0 0 0 0 0 0 0 0 0 0 0 0 0 0 0 0 0 0 0 0 0 0 0 0 0 0 0 0 0 0 0 0 0 0 0 0 0 0 0 0
0 0 0 0 0 0 0 0 0 0 0 0 0 0 0 0 0 0 0 0 0 0 0 0 0 0 0 0 0 0 0 0 0 0 0 0 0 0 0 0 0 0 0 0
0 0 0 0 0 0 0 0 0 0 0 0 0 0 0 0 0 0 0 0 0 0 0 0 0 0 0 0 0 0 0 0 0 0 0 0 0 0 0 0 0 0 0 0
0 0 0 0 0 0 0 0 0 0 0 0 0 0 0 0 0 0 0 0 0 0 0 0 0 0 0 0 0 0 0 0 0 0 0 0 0 0 0 0 0 0 0 0
0 0 0 0 0 0 0 0 0 0 0 0 0 0 0 0 0 0 0 0 0 0 0 0 0 0 0 0 0 0 0 0 0 0 0 0 0 0 0 0 0 0 0 0
0 0 0 0 0 0 0 0 0 0 0 0 0 0 0 0 0 0 0 0 0 0 0 0 0 0 0 0 0 0 0 0 0 0 0 0 0 0 0 0 0 0 0 0
0 0 0 0 0 0 0 0 0 0 0 0 0 0 0 0 0 0 0 0 0 0 0 0 0 0 0 0 0 0 0 0 0 0 0 0 0 0 0 0 0 0 0 0
0 0 0 0 0 0 0 0 0 0 0 0 0 0 0 0 0 0 0 0 0 0 0 0 0 0 0 0 0 0 0 0 0 0 0 0 0 0 0 0 0 0 0 0
0 0 0 0 0 0 0 0 0 0 0 0 0 0 0 0 0 0 0 0 0 0 0 0 0 0 0 0 0 0 0 0 0 0 0 0 0 0 0 0 0 0 0 0
0 0 0 0 0 0 0 0 0 0 0 0 0 0 0 0 0 0 0 0 0 0 0 0 0 0 0 0 0 0 0 0 0 0 0 0 0 0 0 0 0 0 0 0
0 0 0 0 0 0 0 0 0 0 0 0 0 0 0 0 0 0 0 0 0 0 0 0 0 0 0 0 0 0 0 0 0 0 0 0 0 0 0 0 0 0 0 0
0 0 0 0 0 0 0 0 0 0 0 0 0 0 0 0 0 0 0 0 0 0 0 0 0 0 0 0 0 0 0 0 0 0 0 0 0 0 0 0 0 0 0 0
0 0 0 0 0 0 0 0 0 0 0 0 0 0 0 0 0 0 0 0 0 0 0 0 0 0 0 0 0 0 0 0 0 0 0 0 0 0 0 0 0 0 0 0
0 0 0 0 0 0 0 0 0 0 0 0 0 0 0 0 0 0 0 0 0 0 0 0 0 0 0 0 0 0 0 0 0 0 0 0 0 0 0 0 0 0 0 0
0 0 0 0 0 0 0 0 0 0 0 0 0 0 0 0 0 0 0 0 0 0 0 0 0 0 0 0 0 0 0 0 0 0 0 0 0 0 0 0 0 0 0 0
0 0 0 0 0 0 0 0 0 0 0 0 0 0 0 0 0 0 0 0 0 0 0 0 0 0 0 0 0 0 0 0 0 0 0 0 0 0 0 0 0 0 0 0
0 0 0 0 0 0 0 0 0 0 0 0 0 0 0 0 0 0 0 0 0 0 0 0 0 0 0 0 0 0 0 0 0 0 0 0 0 0 0 0 0 0 0 0
0 0 0 0 0 0 0 0 0 0 0 0 0 0 0 0 0 0 0 0 0 0 0 0 0 0 0 0 0 0 0 0 0 0 0 0 0 0 0 0 0 0 0 0
0 0 0 0 0 0 0 0 0 0 0 0 0 0 0 0 0 0 0 0 0 0 0 0 0 0 0 0 0 0 0 0 0 0 0 0 0 0 0 0 0 0 0 0
0 0 0 0 0 0 0 0 0 0 0 0 0 0 0 0 0 0 0 0 0 0 0 0 0 0 0 0 0 0 0 0 0 0 0 0 0 0 0 0 0 0 0 0
0 0 0 0 0 0 0 0 0 0 0 0 0 0 0 0 0 0 0 0 0 0 0 0 0 0 0 0 0 0 0 0 0 0 0 0 0 0 0 0 0 0 0 0
0 0 0 0 0 0 0 0 0 0 0 0 0 0 0 0 0 0 0 0 0 0 0 0 0 0 0 0 0 0 0 0 0 0 0 0 0 0 0 0 0 0 0 0
0 0 0 0 0 0 0 0 0 0 0 0 0 0 0 0 0 0 0 0 0 0 0 0 0 0 0 0 0 0 0 0 0 0 0 0 0 0 0 0 0 0 0 0
0 0 0 0 0 0 0 0 0 0 0 0 0 0 0 0 0 0 0 0 0 0 0 0 0 0 0 0 0 0 0 0 0 0 0 0 0 0 0 0 0 0 0 0
Wind_Speed
4 4 3 5 6 5 6 6 7 7 7 8 6 5 3 2 1 1 1 1 1 2 2 2 3 3 3 4 4 4 4 4 4 5 5 5 5 6 6 6 6 6 6 6
4 3 4 6 8 8 8 7 7 7 10 7 5 2 2 2 2 1 1 2 2 2 3 3 3 3 3 4 4 4 4 4 4 5 5 5 5 5 6 6 6 6 6 6
3 5 4 7 8 8 5 5 6 9 8 3 3 4 5 4 3 3 3 2 2 2 3 3 3 3 3 3 4 4 4 5 5 5 5 6 6 5 5 6 6 6 6 6
1 4 4 8 1 4 5 6 7 7 5 4 5 4 4 4 4 4 3 2 2 2 2 3 2 3 3 3 3 4 4 5 5 5 5 6 5 5 5 5 5 5 6 6
1 2 9 10 4 4 5 7 7 8 7 4 2 1 3 3 3 4 4 3 3 2 2 2 3 3 3 3 3 4 4 5 5 5 6 6 6 6 5 5 6 6 6 6
3 2 8 7 3 1 2 7 5 6 6 4 3 3 5 3 2 3 2 2 2 2 2 2 3 2 2 3 4 4 5 5 5 5 5 6 6 6 6 5 6 6 6 6
5 6 12 9 3 3 3 8 4 6 6 6 7 7 4 2 3 3 2 2 2 1 2 2 2 2 2 3 4 5 5 5 5 5 6 6 6 5 5 5 6 6 7 7
6 6 13 5 7 8 10 3 3 5 5 6 6 4 3 3 4 3 3 2 2 1 2 2 2 2 3 4 4 4 5 5 6 6 6 5 5 6 5 5 6 6 6 7
12 12 6 6 9 7 4 5 5 5 5 5 5 5 5 4 5 4 4 3 2 2 3 3 2 2 4 5 4 4 5 5 5 6 6 6 5 6 5 5 4 5 5 6
8 13 10 8 8 7 6 7 6 6 6 6 6 6 6 5 5 4 4 3 2 2 4 4 3 3 3 4 4 4 5 5 5 5 6 5 5 4 4 4 5 5 6 6
10 11 8 9 12 11 9 7 6 6 6 7 7 7 6 6 6 5 4 3 3 3 5 5 4 4 3 3 3 4 5 5 5 5 5 5 5 5 6 6 6 7 6 6
13 11 9 8 7 8 9 9 9 8 6 6 7 8 6 6 5 4 4 3 3 4 5 5 4 4 4 3 3 4 5 5 4 4 4 4 5 6 9 10 12 13 12 11
13 8 9 8 7 7 9 9 8 8 9 7 6 6 6 5 4 4 4 4 5 5 5 5 4 5 4 3 3 4 5 5 4 4 4 5 5 6 7 8 11 12 12 14
12 8 9 10 10 8 8 8 6 6 6 6 5 4 4 4 4 5 6 5 4 4 4 4 5 6 4 3 4 4 5 5 5 4 4 5 5 5 6 6 7 7 9 13
14 13 13 8 6 6 5 5 5 6 5 5 4 5 5 5 6 6 5 3 2 3 4 4 5 6 4 3 4 4 4 4 4 4 4 5 5 5 5 6 6 6 6 8
10 9 10 10 10 8 6 7 8 8 7 6 6 6 6 5 5 4 3 3 3 5 5 5 6 5 3 3 4 4 4 6 5 4 4 4 4 5 5 5 5 5 6 6
9 11 10 10 12 10 10 10 10 8 7 7 7 5 4 3 3 4 4 3 4 5 4 5 6 4 3 3 3 3 3 4 5 4 4 4 5 5 5 5 5 5 6 7
14 15 12 10 10 10 10 8 8 7 7 7 5 4 5 6 6 6 4 3 3 4 5 5 4 3 3 3 3 3 3 3 3 4 4 4 5 5 5 5 5 6 6 6
13 13 11 10 9 8 8 8 7 7 5 5 6 6 6 6 5 4 3 2 4 6 5 4 5 3 4 4 3 2 3 3 4 4 4 5 5 5 4 5 5 5 5 5
10 9 9 7 6 7 7 6 5 5 5 5 5 5 5 5 4 4 3 5 6 5 4 3 3 3 3 4 4 2 3 3 4 4 4 4 5 5 4 5 5 5 4 4
9 8 7 7 6 5 6 6 6 6 5 6 7 7 6 4 4 4 3 5 5 3 3 3 3 3 3 3 3 2 3 3 4 4 4 4 5 5 4 4 4 4 4 4
7 7 7 6 5 4 4 5 5 6 5 5 6 5 4 4 4 4 5 5 3 2 2 2 2 3 4 3 2 3 3 4 4 4 4 4 4 4 5 5 5 4 4 4
6 6 6 6 6 4 3 4 5 6 6 7 7 7 6 5 4 4 4 4 2 3 2 2 4 5 4 2 2 3 3 4 4 4 4 4 4 4 4 5 4 4 4 4
5 5 5 5 5 5 4 4 4 4 4 4 5 5 5 4 3 4 3 3 3 3 2 3 5 5 3 2 2 3 3 4 4 4 4 4 4 4 4 4 4 4 4 5
5 5 6 7 6 5 5 4 4 4 3 3 3 4 4 3 4 3 2 3 3 2 2 3 4 4 2 2 3 3 3 4 4 4 4 4 4 4 4 4 4 4 4 4
5 5 5 5 4 4 4 5 4 4 4 3 2 2 2 2 2 2 2 2 3 3 2 2 2 2 2 3 3 3 4 4 4 4 4 4 4 4 4 4 5 4 4 5
4 4 3 2 2 3 4 4 4 4 4 4 3 2 2 2 2 2 2 2 2 2 2 2 2 2 2 3 3 3 3 3 3 3 3 3 3 4 4 5 4 4 4 5
Wind_Direction
270 288 273 262 258 241 219 215 219 240 239 250 247 254 250 210 197 248 331 353 345 339 337 337 344 352 354 354 352 354 2 3 355 350 349 351 351 346 345 348 347 343 342 342
302 308 292 274 258 243 239 232 238 251 260 252 248 234 231 212 217 238 270 288 303 320 325 327 331 337 347 350 347 350 356 351 347 350 349 348 345 342 340 342 341 341 340 336
290 320 351 280 244 215 216 216 207 230 245 241 228 228 224 218 219 221 240 255 271 287 299 309 316 323 328 334 343 351 350 345 345 344 342 338 336 337 335 333 332 332 329 328
322 16 252 248 262 204 221 239 225 239 247 226 228 240 233 210 209 227 241 248 264 278 294 308 316 324 329 336 340 343 342 338 336 334 330 327 327 326 322 321 319 316 316 314
116 277 281 289 260 201 208 263 235 231 243 236 243 314 269 234 207 221 232 243 252 265 287 301 309 314 329 333 336 335 330 327 324 323 321 321 320 317 315 314 313 311 309 310
152 205 247 254 238 193 105 276 248 209 222 212 161 247 259 231 225 239 242 244 254 273 291 296 300 310 322 318 322 319 318 318 319 319 314 311 310 308 309 308 306 308 306 304
195 231 260 251 215 123 173 250 225 197 206 192 203 227 237 213 236 236 240 250 257 261 279 284 299 323 318 314 312 315 319 319 317 315 309 305 306 306 308 307 307 305 303 300
174 210 253 212 154 191 221 237 197 201 205 209 228 241 231 224 231 233 242 251 248 255 284 297 310 315 306 302 312 322 320 316 313 312 309 310 309 308 309 307 304 302 301 299
196 218 241 191 206 223 208 216 217 212 219 210 220 230 231 233 235 237 238 243 252 251 281 297 306 297 285 298 314 317 312 305 305 308 310 311 307 305 305 302 296 296 295 295
246 256 251 244 246 247 224 224 228 219 214 205 216 228 232 236 240 243 247 249 257 263 275 287 296 299 287 299 309 306 298 300 304 307 308 309 304 297 291 290 289 291 293 293
250 264 277 257 237 236 236 234 233 227 215 211 213 226 227 232 238 240 248 253 251 252 264 274 283 286 293 300 300 293 292 295 300 298 298 301 297 288 287 277 273 282 281 281
233 228 215 241 229 214 216 225 222 218 225 222 215 225 228 234 236 237 245 253 257 257 263 271 274 277 285 290 284 280 288 293 293 293 294 294 298 301 293 289 293 293 291 290
234 233 225 247 246 223 221 227 222 217 219 225 225 220 223 234 237 237 243 244 246 253 261 266 268 273 281 284 278 268 274 284 287 287 288 291 293 295 300 305 300 300 301 300
238 239 251 244 241 235 227 226 219 221 223 219 220 218 216 228 239 238 242 243 247 255 260 259 263 271 278 279 274 272 275 276 275 277 279 280 281 282 284 289 298 299 304 306
235 226 234 242 240 232 222 210 213 225 223 224 213 212 212 223 237 245 250 246 250 256 259 260 266 274 280 275 273 273 276 276 275 277 277 278 280 281 281 282 284 291 300 307
232 230 233 238 239 229 216 214 219 227 222 220 219 219 220 225 238 247 244 216 224 253 259 260 265 273 273 269 274 276 272 274 278 278 279 280 279 279 282 283 284 287 291 298
223 235 229 232 231 224 218 217 219 223 219 220 222 217 209 214 237 247 250 239 240 255 257 254 264 275 270 261 262 269 272 276 277 279 276 276 278 277 278 280 281 283 284 289
223 231 224 220 221 220 222 218 216 215 215 215 201 190 199 209 225 239 248 260 276 282 267 256 263 277 272 264 261 265 267 270 272 272 277 278 279 279 278 277 279 282 289 295
228 232 232 226 220 213 213 213 213 211 205 186 186 201 213 219 222 228 226 232 249 266 268 262 276 278 270 269 274 265 266 272 279 278 278 281 283 280 278 278 279 281 286 291
228 226 224 223 213 206 210 206 193 194 191 181 183 195 213 221 211 211 216 234 236 241 256 266 269 262 262 267 277 267 262 267 274 281 281 280 281 282 280 280 283 286 288 288
222 214 209 209 209 206 198 185 181 192 189 181 189 202 211 214 202 197 210 250 253 240 252 257 259 264 268 272 270 264 263 267 271 275 278 280 282 283 283 284 285 286 287 288
211 202 203 198 193 201 191 176 179 182 181 188 196 194 192 203 205 214 226 235 243 243 253 255 259 264 274 277 266 262 265 268 272 274 275 277 280 283 285 287 287 288 288 288
202 195 191 188 185 181 166 174 180 180 187 192 195 196 200 204 197 203 240 235 229 246 258 256 270 279 284 275 265 265 266 269 271 273 275 277 278 278 282 285 286 287 288 289
191 184 179 162 145 153 184 196 184 184 189 196 200 198 192 197 223 227 232 224 229 246 254 262 272 281 288 274 268 269 270 271 273 275 277 278 277 277 279 282 285 287 287 290
177 166 158 159 171 188 189 170 161 170 174 190 204 206 205 201 207 218 219 223 230 244 256 268 278 286 282 265 265 269 271 271 273 275 274 275 276 277 279 280 281 285 287 287
169 175 179 183 183 174 165 163 172 181 179 187 206 208 200 195 195 202 210 220 226 240 249 258 266 270 266 265 268 273 275 278 280 278 275 277 278 278 281 283 285 285 285 285
150 150 149 152 168 170 168 172 178 186 187 186 194 196 186 184 190 199 209 219 226 238 251 261 266 266 269 273 278 283 285 284 284 284 284 282 282 282 284 284 285 286 285 285